TimePST,TemperatureF,Dew PointF,Humidity,Sea Level PressureIn,VisibilityMPH,Wind Direction,Wind SpeedMPH,Gust SpeedMPH,PrecipitationIn,Events,Conditions,WindDirDegrees,DateUTC
12:53 AM,54.0,48.9,83,30.15,9.0,Calm,Calm,-,N/A,,Clear,0,2012-11-20 08:53:00
1:53 AM,53.1,48.0,83,30.15,8.0,Calm,Calm,-,N/A,,Clear,0,2012-11-20 09:53:00
2:53 AM,53.1,46.9,80,30.14,9.0,Calm,Calm,-,0.01,,Clear,0,2012-11-20 10:53:00
3:53 AM,52.0,46.9,83,30.13,9.0,Calm,Calm,-,N/A,,Clear,0,2012-11-20 11:53:00
4:53 AM,51.1,46.0,83,30.13,7.0,Calm,Calm,-,N/A,,Clear,0,2012-11-20 12:53:00
5:53 AM,51.1,46.9,86,30.13,7.0,Calm,Calm,-,N/A,,Clear,0,2012-11-20 13:53:00
6:53 AM,50.0,46.0,86,30.14,5.0,Calm,Calm,-,N/A,,Clear,0,2012-11-20 14:53:00
7:53 AM,55.9,50.0,80,30.14,6.0,Calm,Calm,-,N/A,,Haze,0,2012-11-20 15:53:00
8:53 AM,62.1,52.0,70,30.15,5.0,Calm,Calm,-,N/A,,Haze,0,2012-11-20 16:53:00
9:53 AM,66.0,52.0,60,30.14,5.0,Calm,Calm,-,N/A,,Haze,0,2012-11-20 17:53:00
10:53 AM,69.1,52.0,54,30.12,6.0,Calm,Calm,-,N/A,,Haze,0,2012-11-20 18:53:00
11:53 AM,72.0,48.9,44,30.08,8.0,Variable,3.5,-,N/A,,Clear,0,2012-11-20 19:53:00
12:53 PM,73.9,50.0,43,30.04,8.0,Variable,4.6,-,N/A,,Clear,0,2012-11-20 20:53:00
1:53 PM,75.9,51.1,42,30.03,10.0,Variable,4.6,-,N/A,,Clear,0,2012-11-20 21:53:00
2:53 PM,75.0,48.0,38,30.02,10.0,Variable,3.5,-,N/A,,Clear,0,2012-11-20 22:53:00
3:53 PM,70.0,48.0,46,30.03,10.0,WNW,6.9,-,N/A,,Clear,300,2012-11-20 23:53:00
4:53 PM,66.9,48.9,52,30.03,10.0,West,3.5,-,N/A,,Clear,270,2012-11-21 00:53:00
5:53 PM,64.9,50.0,58,30.04,10.0,Variable,3.5,-,N/A,,Clear,0,2012-11-21 01:53:00
6:53 PM,63.0,51.1,65,30.06,10.0,West,3.5,-,N/A,,Clear,270,2012-11-21 02:53:00
7:53 PM,62.1,53.1,72,30.06,10.0,Calm,Calm,-,N/A,,Clear,0,2012-11-21 03:53:00
8:53 PM,59.0,50.0,72,30.06,10.0,Calm,Calm,-,N/A,,Clear,0,2012-11-21 04:53:00
9:53 PM,57.9,50.0,75,30.07,10.0,Calm,Calm,-,N/A,,Clear,0,2012-11-21 05:53:00
10:53 PM,57.0,48.9,74,30.07,10.0,Calm,Calm,-,N/A,,Clear,0,2012-11-21 06:53:00
11:53 PM,55.9,48.0,75,30.06,10.0,Calm,Calm,-,N/A,,Clear,0,2012-11-21 07:53:00